Location: The Saddle
(36.8333°N, 80.3417°W)
Time: 16:02:55
(UTC-05:00)

Vanguard 2 - Visible Passes

Search period start: 30 January 2023 00:00
Search period end: 09 February 2023 00:00
Orbit: 553 x 2930 km, 32.9° (Epoch: 30 January)

Date Brightness Start Highest point End Pass type
(mag) Time Alt. Az. Time Alt. Az. Time Alt. Az.
30 Jan 11.5 01:23:45 16° E 01:23:45 16° E 01:25:36 10° E visible
30 Jan 10.1 03:25:04 61° SE 03:25:04 61° SE 03:35:36 10° ESE visible
30 Jan 10.2 05:26:24 30° WSW 05:32:41 41° SW 05:42:57 10° SSE visible
30 Jan 10.7 20:51:36 10° SSW 20:58:42 29° SSE 20:58:42 29° SSE visible
30 Jan 11.4 22:58:31 10° SW 23:00:03 15° SW 23:00:03 15° SW visible
31 Jan 11.4 01:39:35 20° E 01:39:35 20° E 01:42:38 10° E visible
31 Jan 10.1 03:40:54 62° S 03:40:54 62° S 03:52:18 10° ESE visible
31 Jan 10.4 05:42:14 24° WSW 05:49:05 33° SW 05:58:52 10° SSE visible
31 Jan 11.1 19:06:48 10° SE 19:10:51 12° SE 19:13:27 11° ESE visible
31 Jan 10.5 21:07:26 10° SSW 21:14:48 35° S 21:14:48 35° S visible
31 Jan 11.5 23:15:13 10° WSW 23:16:09 13° WSW 23:16:09 13° WSW visible
01 Feb 11.2 01:55:27 24° ESE 01:55:27 24° ESE 01:59:37 10° ESE visible
01 Feb 10.1 03:56:47 57° SSW 03:56:47 57° SSW 04:08:52 10° SE visible
01 Feb 10.7 05:58:07 18° W 06:05:22 26° SW 06:14:20 10° S visible
01 Feb 10.8 19:19:51 10° SSE 19:26:59 18° SE 19:29:33 17° ESE visible
01 Feb 10.4 21:23:32 10° SW 21:30:53 39° SSW 21:30:53 39° SSW visible
01 Feb 11.6 23:32:02 10° WSW 23:32:14 11° WSW 23:32:14 11° WSW visible
02 Feb 11.1 02:11:23 28° ESE 02:11:23 28° ESE 02:16:32 10° ESE visible
02 Feb 10.2 04:12:43 50° SSW 04:12:43 50° SSW 04:25:14 10° SE visible
02 Feb 10.9 06:14:03 13° W 06:21:33 19° SW 06:29:11 10° S visible
02 Feb 10.6 19:34:36 10° S 19:43:09 25° SE 19:45:38 24° ESE visible
02 Feb 10.4 21:39:53 10° SW 21:46:58 40° SSW 21:46:58 40° SSW visible
03 Feb11.700:26:00E00:26:00E23:48:19WSWvisible
03 Feb 11.0 02:27:20 32° ESE 02:27:20 32° ESE 02:33:21 10° ESE visible
03 Feb 10.4 04:28:40 42° SW 04:29:02 42° SW 04:41:22 10° SSE visible
03 Feb 11.2 06:32:13 10° WSW 06:37:41 13° SW 06:42:33 10° SSW visible
03 Feb 10.3 19:50:04 10° SSW 19:59:24 32° SE 20:01:42 31° ESE visible
03 Feb 10.5 21:56:26 10° WSW 22:03:02 40° SW 22:03:02 40° SW visible
04 Feb11.800:42:00E00:42:00E00:04:23Wvisible
04 Feb 10.9 02:43:20 34° SE 02:43:20 34° SE 02:50:03 10° SE visible
04 Feb 10.6 04:44:41 34° SW 04:45:28 34° SW 04:57:11 10° SSE visible
04 Feb 10.1 20:05:56 10° SSW 20:15:46 40° SE 20:17:44 38° SE visible
04 Feb 10.6 22:13:07 10° WSW 22:19:05 37° SW 22:19:05 37° SW visible
05 Feb12.000:58:02ESE00:58:02ESE00:20:25Wvisible
05 Feb 10.8 02:59:23 35° SSE 02:59:23 35° SSE 03:06:34 10° SE visible
05 Feb 10.8 05:00:43 27° SW 05:01:48 27° SW 05:12:34 10° S visible
05 Feb 10.7 18:18:57 10° SSE 18:24:11 16° SE 18:30:41 10° E visible
05 Feb 9.9 20:22:05 10° SW 20:32:15 48° SSE 20:33:45 47° SE visible
05 Feb 10.7 22:29:54 10° WSW 22:35:05 33° WSW 22:35:05 33° WSW visible
06 Feb 10.8 03:15:26 34° SSE 03:15:26 34° SSE 03:22:53 10° SE visible
06 Feb 11.0 05:16:46 20° SW 05:18:03 20° SW 05:27:17 10° S visible
06 Feb 10.4 18:33:38 10° S 18:40:19 22° SE 18:48:24 12° E visible
06 Feb 9.8 20:38:28 10° SW 20:48:52 57° SSE 20:49:43 56° SE visible
06 Feb 10.9 22:46:46 10° WSW 22:51:03 28° WSW 22:51:03 28° WSW visible
07 Feb 11.8 01:30:09 10° ESE 01:30:09 10° ESE 01:30:13 10° ESE visible
07 Feb 10.9 03:31:31 31° S 03:31:31 31° S 03:38:55 10° SSE visible
07 Feb 11.2 05:32:51 14° SW 05:34:17 14° SW 05:40:41 10° SSW visible
07 Feb 10.1 18:49:06 10° SSW 18:56:31 30° SE 19:04:19 16° E visible
07 Feb 9.7 20:55:01 10° WSW 21:05:37 64° SSE 21:05:39 64° SSE visible
07 Feb 11.1 23:03:39 10° W 23:06:58 23° W 23:06:58 23° W visible
08 Feb 11.7 01:46:15 12° SE 01:46:15 12° SE 01:46:53 10° SE visible
08 Feb 11.0 03:47:35 27° S 03:47:35 27° S 03:54:37 10° SSE visible
08 Feb 9.9 19:04:59 10° SSW 19:12:51 38° SE 19:20:13 21° E visible
08 Feb 9.6 21:11:41 10° WSW 21:21:32 68° S 21:21:32 68° S visible
08 Feb 11.2 23:20:35 10° W 23:22:52 19° W 23:22:52 19° W visible
